Content
SEND FEEDBACK

Daily
Averages
Monthly
Summary
United States of America

EL PASO, TEXAS


Home > North America > United States > Texas
Elevation: 3918 feet     Latitude: 31 48N     Longitude: 106 24W

WEATHER
 
SELECT A DAY
Number of Records: 172,156;   Date Range: 1/1/95 - 9/3/14
 
SHARE

PRINT THIS DATA

[ ← Previous Day ]
WEATHER ALMANAC - MARCH 19, 2013
[ Next Day → ]
[ °C ]   °F
Weather ElementAverageHighLow
Temperature65 °F77 °F (4:51 pm)48.9 °F (5:51 am)
Dewpoint14.7 °F19 °F (11:51 pm)10 °F (2:51 am)
Humidity15 %24 % (5:51 am)9 % (4:51 pm)
Barometer29.86 in29.98 in (11:51 pm)29.78 in (3:51 pm)
Wind Speed11 mph20.7 mph (4:51 pm)
Wind Gust31.1 mph (4:51 pm)
Weather ElementAverage
Visibility10 mi
Wind DirectionSSW (210 °)

Weather ElementTotal
Precipitation---
Heating Degree Days2.1 (Base 65)
Growing Degree Days13 (Base 50)
Averaged from 23 records on March 19, 2013
WEATHER CONDITIONS BREAKOUT
WIND DIRECTION BREAKOUT
WEATHER BY HOUR - MARCH 19, 2013
[ °C ]   °F
Local TimeTemperatureDewpointHumidityBarometerVisibilityWind DirectionWind SpeedGust SpeedPrecipitationEventsConditions
1:51 AM59.0 °F12.0 °F16 %29.83 in10.0 miSSE (160°)6.9 mphMostly Cloudy
2:51 AM60.1 °F10.0 °F14 %29.82 in10.0 miSouth (170°)3.5 mphPartly Cloudy
3:51 AM55.9 °F10.9 °F17 %29.82 in10.0 miSouth (180°)4.6 mphPartly Cloudy
4:51 AM55.9 °F10.9 °F17 %29.82 in10.0 miWSW (240°)4.6 mphScattered Clouds
5:51 AM48.9 °F12.9 °F24 %29.85 in10.0 miESE (120°)6.9 mphScattered Clouds
6:51 AM50.0 °F14.0 °F24 %29.86 in10.0 miSE (140°)8.1 mphScattered Clouds
7:51 AM50.0 °F14.0 °F24 %29.88 in10.0 miSE (140°)4.6 mphScattered Clouds
8:51 AM61.0 °F14.0 °F16 %29.88 in10.0 miSW (230°)11.5 mphMostly Cloudy
9:51 AM64.9 °F15.1 °F15 %29.88 in10.0 miSW (230°)12.7 mphMostly Cloudy
10:51 AM69.1 °F15.1 °F13 %29.88 in10.0 miSW (230°)11.5 mphMostly Cloudy
11:51 AM69.1 °F16.0 °F13 %29.87 in10.0 miWNW (300°)9.2 mphMostly Cloudy
12:51 PM70.0 °F17.1 °F13 %29.87 in10.0 miWest (260°)16.1 mph23.0 mphMostly Cloudy
1:51 PM72.0 °F17.1 °F12 %29.84 in10.0 miWNW (300°)5.8 mph19.6 mphMostly Cloudy
2:51 PM75.9 °F15.1 °F10 %29.80 in10.0 miWNW (300°)16.1 mph24.2 mphMostly Cloudy
3:51 PM75.9 °F15.1 °F10 %29.78 in10.0 miWNW (300°)17.3 mph21.9 mphScattered Clouds
4:51 PM77.0 °F14.0 °F9 %29.78 in10.0 miWNW (290°)20.7 mph31.1 mphScattered Clouds
5:51 PM75.2 °F15.8 °F11 %29.95 in10.0 miWNW (290°)18.4 mph28.8 mphPartly Cloudy
6:51 PM73.0 °F16.0 °F11 %29.82 in10.0 miWNW (300°)18.4 mph24.2 mphScattered Clouds
7:51 PM71.1 °F16.0 °F12 %29.85 in10.0 miNW (310°)12.7 mphScattered Clouds
8:51 PM70.0 °F17.1 °F13 %29.86 in10.0 miWNW (300°)12.7 mphClear
9:51 PM68.0 °F16.0 °F14 %29.89 in10.0 miNorth (10°)15.0 mphPartly Cloudy
10:51 PM63.0 °F16.0 °F16 %29.93 in10.0 miNNE (30°)16.1 mphPartly Cloudy
11:51 PM59.0 °F19.0 °F21 %29.98 in10.0 miCalmPartly Cloudy
Hourly data recorded from KELP, located miles away from El Paso, Texas







STORIES FROM OUR PARTNERS